Volver al catálogo

STARLINK-33805

ActivoComunicacionesVLEO
NORAD 63590·PAYLOAD·🇺🇸 United States

Lanzado Apr 14, 2025 desde Cape Canaveral Space Force Station

Loading…

Próximos Pases (próximas 24 horas)

TLE

ActualizadoSource: CelesTrak SupGP

Época: Sep 15, 2026, 03:58 UTC

1 63590C 25076X   26258.16576389  .00046445  00000+0  16821-2 0  2581
2 63590  43.0012 331.9910 0001589 269.9351 103.5458 15.27557320    13

Sigue STARLINK-33805 en tiempo real con AllMySat

Download on the App Store